Location: Unspecified
(0.0000°N, 0.0000°E)
Time: 23:55:43
(UTC+00:00)

Vanguard 1 Rocket - All Passes

Search period start: 28 May 2022 00:00
Search period end: 07 June 2022 00:00
Orbit: 652 x 4223 km, 34.3° (Epoch: 28 May)

Date Brightness Start Highest point End Pass type
(mag) Time Alt. Az. Time Alt. Az. Time Alt. Az.
28 May - 00:01:17 10° SSW 00:05:02 23° SSE 00:08:34 10° E night (unlit)
28 May - 02:26:03 10° W 02:29:59 28° NNW 02:35:11 10° NNE visible
28 May - 07:27:40 10° N 07:32:40 12° NNE 07:38:39 10° NE daylight
28 May - 09:51:03 10° NNW 10:08:18 35° NE 10:30:39 10° E daylight
28 May - 12:18:10 10° NW 12:42:45 79° NE 13:06:36 10° ESE daylight
28 May - 14:51:38 10° WNW 15:16:15 48° SW 15:34:08 10° SSE daylight
28 May - 17:39:12 10° WSW 17:49:21 15° SSW 17:57:04 10° S daylight
28 May - 22:52:30 10° SSE 22:53:20 10° SSE 22:54:08 10° SSE night (unlit)
29 May - 01:14:26 10° WSW 01:18:49 70° NW 01:23:49 10° NE night (unlit)
29 May - 08:39:57 10° NNW 08:52:25 23° NNE 09:09:30 10° ENE daylight
29 May - 11:05:11 10° NW 11:26:45 59° NE 11:51:45 10° ESE daylight
29 May - 13:35:06 10° WNW 14:00:45 68° SW 14:22:10 10° SE daylight
29 May - 16:15:31 10° W 16:34:09 27° SW 16:47:20 10° SSE daylight
30 May - 00:03:20 10° SW 00:07:56 41° SE 00:12:08 10° ENE night (unlit)
30 May - 02:30:06 10° WNW 02:33:08 17° NNW 02:36:46 10° NNE visible
30 May - 07:30:14 10° N 07:36:44 14° NNE 07:44:55 10° NE daylight
30 May - 09:53:14 10° NNW 10:11:01 42° NE 10:34:42 10° E daylight
30 May - 12:20:32 10° NW 12:44:51 89° SW 13:09:08 10° SE daylight
30 May - 14:55:17 10° W 15:18:43 40° SW 15:36:20 10° SSE daylight
30 May - 17:45:37 10° SW 17:53:09 13° SSW 17:59:14 10° S daylight
30 May - 22:52:39 10° SSW 22:56:33 18° SSE 22:59:46 10° ESE night (unlit)
31 May - 01:17:35 10° WSW 01:21:41 37° NW 01:26:13 10° NNE night (unlit)
31 May - 08:42:12 10° NNW 08:55:38 27° NE 09:14:42 10° E daylight
31 May - 11:07:26 10° NW 11:28:57 70° NE 11:54:40 10° ESE daylight
31 May - 13:38:03 10° WNW 14:02:58 58° SW 14:24:24 10° SE daylight
31 May - 16:20:48 10° WSW 16:37:26 22° SSW 16:49:37 10° SSE daylight
31 May - 21:42:48 10° S 21:44:18 11° SSE 21:45:41 10° SSE night (unlit)
01 Jun - 00:05:48 10° SW 00:10:48 78° SE 00:15:13 10° ENE night (unlit)
01 Jun - 07:32:23 10° N 07:40:29 16° NNE 07:51:17 10° ENE daylight
01 Jun - 09:55:26 10° NNW 10:13:27 50° NE 10:38:16 10° ESE daylight
01 Jun - 12:23:06 10° WNW 12:46:58 77° SW 13:11:29 10° SE daylight
01 Jun - 14:59:25 10° W 15:21:30 34° SW 15:38:33 10° SSE daylight
01 Jun - 17:51:49 10° SW 17:57:16 12° SSW 18:01:53 10° S daylight
01 Jun - 22:54:21 10° SSW 22:59:41 31° SSE 23:03:42 10° E night (unlit)
02 Jun - 01:21:16 10° W 01:24:37 21° NNW 01:28:11 10° NNE night (unlit)
02 Jun - 08:44:22 10° NNW 08:58:28 33° NE 09:19:19 10° E daylight
02 Jun - 11:09:47 10° NW 11:31:03 81° NE 11:57:17 10° SE daylight
02 Jun - 13:41:21 10° WNW 14:05:22 49° SW 14:26:35 10° SE daylight
02 Jun - 16:26:32 10° WSW 16:41:07 19° SSW 16:52:07 10° SSE daylight
02 Jun - 21:42:56 10° SSW 21:47:46 18° SSE 21:51:23 10° ESE visible
03 Jun - 00:08:38 10° WSW 00:13:37 56° NW 00:17:55 10° NE night (unlit)
03 Jun - 07:34:25 10° N 07:43:52 20° NE 07:57:15 10° ENE daylight
03 Jun - 09:57:41 10° NW 10:15:41 59° NE 10:41:25 10° ESE daylight
03 Jun - 12:25:54 10° WNW 12:49:10 66° SW 13:13:41 10° SE daylight
03 Jun - 15:04:04 10° W 15:24:37 29° SSW 15:40:50 10° SSE daylight
03 Jun - 17:56:46 10° SSW 18:01:34 11° S 18:05:41 10° S daylight
03 Jun - 20:31:11 10° S 20:34:56 13° SSE 20:37:59 10° SE visible
03 Jun - 22:56:30 10° SW 23:02:41 54° SSE 23:07:03 10° ENE night (unlit)
04 Jun - 01:26:05 10° NW 01:27:36 11° NNW 01:29:09 10° N night (unlit)
04 Jun - 08:46:34 10° NNW 09:01:01 40° NE 09:23:21 10° ESE daylight
04 Jun - 11:12:17 10° NW 11:33:10 87° SW 11:59:40 10° SE daylight
04 Jun - 13:45:04 10° W 14:08:03 41° SSW 14:28:44 10° SSE daylight
04 Jun - 16:32:24 10° SW 16:45:10 17° SSW 16:54:59 10° SSE daylight
04 Jun - 19:17:52 10° S 19:21:04 11° S 19:23:49 10° SSE visible
04 Jun - 21:44:23 10° SSW 21:51:05 28° SSE 21:55:33 10° E visible
05 Jun - 00:11:53 10° W 00:16:23 31° NW 00:20:17 10° NNE night (unlit)
05 Jun - 07:36:26 10° NNW 07:46:53 24° NE 08:02:36 10° E daylight
05 Jun - 10:00:02 10° NW 10:17:49 70° NE 10:44:12 10° ESE daylight
05 Jun - 12:28:58 10° WNW 12:51:33 56° SW 13:15:48 10° SE daylight
05 Jun - 15:09:13 10° WSW 15:28:10 24° SSW 15:43:19 10° SSE daylight
05 Jun - 18:00:01 10° SSW 18:05:56 12° S 18:10:47 10° SSE daylight
05 Jun - 20:31:53 10° SSW 20:38:34 19° SSE 20:43:13 10° ESE visible
05 Jun - 22:59:00 10° SW 23:05:33 86° NW 23:10:02 10° NE night (unlit)
06 Jun - 06:28:36 10° NNE 06:32:57 12° NNE 06:38:13 10° NE daylight
06 Jun - 08:48:47 10° NNW 09:03:20 49° NE 09:26:52 10° ESE daylight
06 Jun - 11:15:00 10° WNW 11:35:24 75° SW 12:01:52 10° SE daylight
06 Jun - 13:49:13 10° W 14:11:04 35° SSW 14:30:57 10° SSE daylight
06 Jun - 16:37:53 10° SW 16:49:30 16° SSW 16:58:30 10° SSE daylight
06 Jun - 19:18:17 10° SSW 19:25:01 15° S 19:30:01 10° SE visible
06 Jun - 21:46:17 10° SW 21:54:15 44° SSE 21:59:07 10° ENE visible
